Location: *
(50.3440°N, 18.6237°E)
Time: 17:22:20
(UTC+00:00)

SMAP - Pass Details

Date: 30 November 2020
Orbit: 681 x 683 km, 98.1° (Epoch: 22 January)

Event Time Altitude Azimuth Distance (km) Brightness Sun altitude
Rises 16:23:47 0° 177° (S) 3,034 6.6 -15.0°
Reaches altitude 10° 16:26:03 10° 182° (S) 2,124 5.8 -15.3°
Maximum altitude 16:30:36 54° 260° (W) 836 3.9 -16.0°
Drops below altitude 10° 16:35:12 10° 338° (NNW) 2,141 5.7 -16.7°
Sets 16:37:30 0° 343° (NNW) 3,061 6.5 -17.1°
